RYR65CN EGCC-LIMC

Flight info

Callsign RYR65CN
Flight time 1h 55m
Altitude 23000
Route LISTO L612 HON/N0439F350 L15 BIG UL9 KONAN DCT KOK DCT CIV DCT SUTAL DCT GTQ DCT OBORN DCT DEVDI DCT BASGO/N0402F290 Z424 AKASU/N0341F190 Z424 RIXUV
Aircraft B738/M-SDE2E3FGHIRWXY/LB1

Departure

Time 2026-05-04 16:40
Airport Manchester Airport (EGCC)

Arrival

Time 2026-05-04 18:35
Airport Milan Malpensa International Airport (LIMC)
Time Latitude Longitude Altitude Speed Heading
2026-05-04 15:49 53.36010 -2.26927 254 ft 0 kts 313°
2026-05-04 16:00 53.36009 -2.26928 254 ft 2 kts 314°
2026-05-04 16:01 53.36010 -2.26927 254 ft 0 kts 313°
2026-05-04 16:23 53.35978 -2.26869 254 ft 3 kts 284°
2026-05-04 16:24 53.35995 -2.26813 254 ft 0 kts 230°
2026-05-04 16:28 53.35931 -2.26803 255 ft 6 kts 120°
2026-05-04 16:28 53.35923 -2.26773 255 ft 0 kts 112°
2026-05-04 16:31 53.35896 -2.26709 259 ft 8 kts 149°
2026-05-04 16:32 53.35573 -2.26642 262 ft 20 kts 205°
2026-05-04 16:33 53.35414 -2.26950 248 ft 19 kts 231°
2026-05-04 16:33 53.35353 -2.27074 245 ft 0 kts 231°
2026-05-04 16:35 53.35270 -2.27244 238 ft 18 kts 231°
2026-05-04 16:35 53.35049 -2.27486 227 ft 0 kts 171°
2026-05-04 16:36 53.35049 -2.27485 227 ft 0 kts 171°
2026-05-04 16:37 53.34960 -2.27464 224 ft 10 kts 183°
2026-05-04 16:37 53.34915 -2.27517 222 ft 0 kts 231°
2026-05-04 16:39 53.34783 -2.27791 222 ft 66 kts 231°
2026-05-04 16:39 53.33689 -2.30061 422 ft 163 kts 231°
2026-05-04 16:40 53.32232 -2.33122 1732 ft 188 kts 240°
2026-05-04 16:40 53.32401 -2.37805 2334 ft 224 kts 285°
2026-05-04 16:41 53.32342 -2.43235 3019 ft 261 kts 234°
2026-05-04 16:41 53.27311 -2.45346 4964 ft 269 kts 167°
2026-05-04 16:42 53.22348 -2.40890 4995 ft 270 kts 152°
2026-05-04 16:43 53.19053 -2.37914 4993 ft 268 kts 152°
2026-05-04 16:43 53.15718 -2.34983 5620 ft 274 kts 153°
2026-05-04 16:43 53.14027 -2.33504 6534 ft 274 kts 153°
2026-05-04 16:44 53.07093 -2.27452 9479 ft 289 kts 153°
2026-05-04 16:45 53.03445 -2.24276 10479 ft 312 kts 153°
2026-05-04 16:46 52.97223 -2.18879 11756 ft 347 kts 153°
2026-05-04 16:46 52.92926 -2.15161 13223 ft 352 kts 153°
2026-05-04 16:47 52.88568 -2.11399 14571 ft 359 kts 153°
2026-05-04 16:47 52.84075 -2.07528 15982 ft 364 kts 153°
2026-05-04 16:48 52.77287 -2.01695 18006 ft 373 kts 153°
2026-05-04 16:48 52.74976 -1.99714 18622 ft 376 kts 153°
2026-05-04 16:49 52.70319 -1.95729 19881 ft 378 kts 153°
2026-05-04 16:49 52.65604 -1.91705 20973 ft 385 kts 153°
2026-05-04 16:50 52.60811 -1.87624 22106 ft 390 kts 153°
2026-05-04 16:50 52.55954 -1.83498 23172 ft 396 kts 154°
2026-05-04 16:51 52.51027 -1.79324 24116 ft 401 kts 153°
2026-05-04 16:51 52.48544 -1.77223 24551 ft 403 kts 153°
2026-05-04 16:51 52.43537 -1.72995 25383 ft 409 kts 153°
2026-05-04 16:52 52.38450 -1.68712 26168 ft 414 kts 153°
2026-05-04 16:52 52.35959 -1.66311 26538 ft 417 kts 145°
2026-05-04 16:53 52.31702 -1.59792 27299 ft 423 kts 134°
2026-05-04 16:53 52.25608 -1.49199 28373 ft 430 kts 135°
2026-05-04 16:54 52.23548 -1.45665 28701 ft 432 kts 136°
2026-05-04 16:55 52.15108 -1.31337 29987 ft 442 kts 136°
2026-05-04 16:55 52.10831 -1.24114 30525 ft 445 kts 136°
2026-05-04 16:56 52.06572 -1.16934 31305 ft 441 kts 136°
2026-05-04 16:56 52.00160 -1.06272 32397 ft 437 kts 137°
2026-05-04 16:57 51.98010 -1.02783 32742 ft 436 kts 136°
2026-05-04 16:57 51.93831 -0.95800 33388 ft 435 kts 136°
2026-05-04 16:58 51.87483 -0.85162 34154 ft 436 kts 136°
2026-05-04 16:58 51.85372 -0.81646 34437 ft 435 kts 136°
2026-05-04 16:59 51.81138 -0.74619 34810 ft 438 kts 136°
2026-05-04 17:00 51.72704 -0.60723 35719 ft 437 kts 136°
2026-05-04 17:00 51.66297 -0.50226 36322 ft 438 kts 136°
2026-05-04 17:01 51.62018 -0.43236 36678 ft 439 kts 136°
2026-05-04 17:01 51.57730 -0.36250 37012 ft 440 kts 136°
2026-05-04 17:02 51.53407 -0.29229 37029 ft 442 kts 136°
2026-05-04 17:03 51.46968 -0.18803 37017 ft 435 kts 136°
2026-05-04 17:03 51.40595 -0.08528 37013 ft 432 kts 136°
2026-05-04 17:04 51.33060 0.06128 37024 ft 436 kts 115°
2026-05-04 17:05 51.31499 0.15521 37002 ft 440 kts 102°
2026-05-04 17:05 51.30421 0.25102 37002 ft 442 kts 103°
2026-05-04 17:06 51.28636 0.39602 36993 ft 445 kts 103°
2026-05-04 17:07 51.27270 0.50893 36984 ft 446 kts 103°
2026-05-04 17:07 51.25648 0.63845 36997 ft 448 kts 104°
2026-05-04 17:08 51.23730 0.78461 36990 ft 450 kts 103°
2026-05-04 17:09 51.22507 0.88252 36987 ft 450 kts 103°
2026-05-04 17:09 51.21271 0.98023 36979 ft 449 kts 104°
2026-05-04 17:10 51.18309 1.20720 36989 ft 448 kts 104°
2026-05-04 17:11 51.17028 1.30424 36989 ft 447 kts 104°
2026-05-04 17:12 51.15717 1.45143 36980 ft 449 kts 96°
2026-05-04 17:13 51.14648 1.69923 36986 ft 448 kts 97°
2026-05-04 17:14 51.13638 1.89693 36974 ft 448 kts 97°
2026-05-04 17:15 51.12862 2.04524 36991 ft 448 kts 97°
2026-05-04 17:16 51.11797 2.24330 36989 ft 449 kts 97°
2026-05-04 17:17 51.10700 2.44164 36978 ft 451 kts 98°
2026-05-04 17:18 51.09149 2.63896 36978 ft 446 kts 111°
2026-05-04 17:18 51.06422 2.72628 36981 ft 439 kts 127°
2026-05-04 17:19 51.02943 2.80524 36983 ft 439 kts 128°
2026-05-04 17:20 50.95933 2.96429 36981 ft 440 kts 128°
2026-05-04 17:20 50.90696 3.08402 36966 ft 440 kts 128°
2026-05-04 17:21 50.83713 3.24290 36956 ft 440 kts 128°
2026-05-04 17:22 50.80200 3.32246 36942 ft 439 kts 128°
2026-05-04 17:23 50.73207 3.48008 36947 ft 438 kts 128°
2026-05-04 17:24 50.67949 3.59797 36948 ft 437 kts 128°
2026-05-04 17:25 50.60967 3.75375 36932 ft 437 kts 129°
2026-05-04 17:26 50.54098 3.91047 36957 ft 437 kts 126°
2026-05-04 17:27 50.45900 4.11042 36962 ft 438 kts 127°
2026-05-04 17:28 50.39218 4.27057 36960 ft 439 kts 127°
2026-05-04 17:29 50.29128 4.51034 36965 ft 440 kts 127°
2026-05-04 17:31 50.20893 4.70448 36960 ft 440 kts 128°
2026-05-04 17:32 50.12400 4.90315 36966 ft 441 kts 128°
2026-05-04 17:33 50.05598 5.06126 36959 ft 439 kts 128°
2026-05-04 17:34 49.98790 5.21852 36971 ft 438 kts 128°
2026-05-04 17:35 49.90340 5.41242 36981 ft 436 kts 129°
2026-05-04 17:36 49.86957 5.48964 36977 ft 436 kts 129°
2026-05-04 17:36 49.83552 5.56716 36972 ft 435 kts 129°
2026-05-04 17:37 49.80137 5.64468 36982 ft 436 kts 129°
2026-05-04 17:37 49.77094 5.71353 36982 ft 436 kts 129°
2026-05-04 17:38 49.73669 5.79085 36985 ft 436 kts 129°
2026-05-04 17:38 49.70307 5.86652 36957 ft 436 kts 129°
2026-05-04 17:39 49.65188 5.98133 36980 ft 436 kts 129°
2026-05-04 17:39 49.61761 6.05791 36974 ft 437 kts 129°
2026-05-04 17:40 49.58303 6.13497 36955 ft 437 kts 129°
2026-05-04 17:40 49.54836 6.21202 36972 ft 438 kts 129°
2026-05-04 17:41 49.51365 6.28898 36946 ft 438 kts 129°
2026-05-04 17:41 49.47745 6.36386 36964 ft 432 kts 139°
2026-05-04 17:42 49.43010 6.41825 36974 ft 421 kts 158°
2026-05-04 17:42 49.37675 6.45444 36988 ft 419 kts 160°
2026-05-04 17:43 49.32321 6.48977 36986 ft 420 kts 160°
2026-05-04 17:43 49.26970 6.52560 36993 ft 420 kts 160°
2026-05-04 17:44 49.21622 6.56164 36996 ft 420 kts 160°
2026-05-04 17:44 49.16303 6.59744 36996 ft 420 kts 160°
2026-05-04 17:45 49.10964 6.63330 36966 ft 421 kts 160°
2026-05-04 17:45 49.05606 6.66919 36994 ft 420 kts 160°
2026-05-04 17:46 49.00244 6.70502 37000 ft 421 kts 160°
2026-05-04 17:46 48.95052 6.74698 37010 ft 425 kts 152°
2026-05-04 17:47 48.90031 6.79500 37003 ft 427 kts 152°
2026-05-04 17:47 48.84995 6.84299 36996 ft 428 kts 152°
2026-05-04 17:48 48.79931 6.89047 37005 ft 428 kts 152°
2026-05-04 17:48 48.74848 6.93774 37002 ft 428 kts 152°
2026-05-04 17:49 48.69763 6.98487 36984 ft 429 kts 152°
2026-05-04 17:49 48.64686 7.03184 36996 ft 429 kts 152°
2026-05-04 17:50 48.59600 7.07879 37006 ft 429 kts 152°
2026-05-04 17:50 48.54510 7.12568 37010 ft 429 kts 152°
2026-05-04 17:51 48.49448 7.17220 37006 ft 429 kts 152°
2026-05-04 17:51 48.44189 7.21331 36998 ft 422 kts 165°
2026-05-04 17:52 48.38604 7.23986 36996 ft 421 kts 166°
2026-05-04 17:52 48.33009 7.26614 36996 ft 421 kts 166°
2026-05-04 17:53 48.27421 7.29281 37008 ft 421 kts 166°
2026-05-04 17:53 48.21843 7.31962 36991 ft 421 kts 166°
2026-05-04 17:54 48.16264 7.34643 36991 ft 421 kts 166°
2026-05-04 17:54 48.10691 7.37315 36998 ft 421 kts 166°
2026-05-04 17:55 48.05115 7.39981 36995 ft 421 kts 166°
2026-05-04 17:55 47.99518 7.42652 37000 ft 422 kts 166°
2026-05-04 17:56 47.93922 7.45315 36994 ft 422 kts 166°
2026-05-04 17:56 47.88323 7.47975 37016 ft 423 kts 166°
2026-05-04 17:57 47.82711 7.50634 37026 ft 424 kts 166°
2026-05-04 17:57 47.77121 7.53279 37002 ft 424 kts 166°
2026-05-04 17:58 47.71543 7.56151 36999 ft 428 kts 161°
2026-05-04 17:58 47.66080 7.59702 36980 ft 429 kts 160°
2026-05-04 17:59 47.60626 7.63331 37003 ft 430 kts 160°
2026-05-04 18:00 47.52401 7.68694 36989 ft 431 kts 161°
2026-05-04 18:00 47.46901 7.72234 37011 ft 431 kts 161°
2026-05-04 18:01 47.41400 7.75761 37018 ft 432 kts 161°
2026-05-04 18:01 47.35889 7.79288 37026 ft 431 kts 161°
2026-05-04 18:02 47.28567 7.83961 36809 ft 431 kts 161°
2026-05-04 18:02 47.25834 7.85704 36532 ft 424 kts 161°
2026-05-04 18:02 47.23143 7.87420 36140 ft 419 kts 161°
2026-05-04 18:03 47.20490 7.89109 35786 ft 414 kts 161°
2026-05-04 18:03 47.17857 7.90781 35388 ft 410 kts 161°
2026-05-04 18:03 47.15248 7.92436 35010 ft 406 kts 161°
2026-05-04 18:03 47.12661 7.94075 34647 ft 403 kts 161°
2026-05-04 18:04 47.10097 7.95697 34259 ft 400 kts 161°
2026-05-04 18:04 47.07560 7.97301 33869 ft 396 kts 161°
2026-05-04 18:04 47.02543 8.00467 33091 ft 388 kts 161°
2026-05-04 18:05 47.00077 8.02021 32707 ft 384 kts 161°
2026-05-04 18:05 46.97640 8.03556 32368 ft 379 kts 161°
2026-05-04 18:05 46.95234 8.05070 32003 ft 375 kts 161°
2026-05-04 18:05 46.92847 8.06569 31662 ft 371 kts 161°
2026-05-04 18:06 46.88133 8.09527 30986 ft 365 kts 161°
2026-05-04 18:06 46.85812 8.10980 30638 ft 362 kts 161°
2026-05-04 18:06 46.83505 8.12424 30317 ft 359 kts 161°
2026-05-04 18:07 46.81221 8.13853 29950 ft 355 kts 161°
2026-05-04 18:07 46.78965 8.15263 29616 ft 350 kts 161°
2026-05-04 18:07 46.76737 8.16654 29248 ft 347 kts 161°
2026-05-04 18:07 46.74521 8.18037 28913 ft 345 kts 161°
2026-05-04 18:08 46.72323 8.19406 28581 ft 343 kts 161°
2026-05-04 18:08 46.70130 8.20770 28210 ft 341 kts 161°
2026-05-04 18:08 46.67989 8.22102 27911 ft 338 kts 161°
2026-05-04 18:08 46.65806 8.23459 27552 ft 337 kts 161°
2026-05-04 18:09 46.61533 8.26110 26907 ft 335 kts 161°
2026-05-04 18:09 46.57273 8.28750 26247 ft 331 kts 161°
2026-05-04 18:10 46.55166 8.30055 25935 ft 329 kts 161°
2026-05-04 18:10 46.53071 8.31349 25628 ft 328 kts 161°
2026-05-04 18:10 46.50972 8.32646 25298 ft 328 kts 161°
2026-05-04 18:10 46.48876 8.33940 24989 ft 327 kts 161°
2026-05-04 18:11 46.46786 8.35229 24673 ft 326 kts 161°
2026-05-04 18:11 46.44706 8.36511 24359 ft 325 kts 161°
2026-05-04 18:11 46.42626 8.37791 24040 ft 325 kts 161°
2026-05-04 18:11 46.40549 8.39069 23735 ft 324 kts 161°
2026-05-04 18:12 46.38474 8.40346 23355 ft 323 kts 161°
2026-05-04 18:12 46.36408 8.41615 23002 ft 322 kts 161°
2026-05-04 18:12 46.34347 8.42882 22684 ft 320 kts 161°
2026-05-04 18:12 46.32306 8.44133 22332 ft 319 kts 161°
2026-05-04 18:13 46.30274 8.45378 22023 ft 317 kts 161°
2026-05-04 18:13 46.28243 8.46602 21694 ft 314 kts 164°
2026-05-04 18:13 46.24037 8.47750 21099 ft 305 kts 178°
2026-05-04 18:14 46.21922 8.48035 20783 ft 305 kts 178°
2026-05-04 18:14 46.19852 8.48316 20457 ft 305 kts 178°
2026-05-04 18:14 46.17742 8.48613 20126 ft 305 kts 177°
2026-05-04 18:15 46.13517 8.49228 19494 ft 306 kts 178°
2026-05-04 18:15 46.09324 8.50401 18835 ft 311 kts 163°
2026-05-04 18:15 46.07301 8.51502 18512 ft 311 kts 163°
2026-05-04 18:16 46.05281 8.52624 18147 ft 312 kts 163°
2026-05-04 18:16 46.03290 8.53722 17808 ft 312 kts 162°
2026-05-04 18:16 46.01261 8.54831 17450 ft 312 kts 163°
2026-05-04 18:17 45.97226 8.57013 16752 ft 312 kts 163°
2026-05-04 18:17 45.95192 8.58108 16414 ft 313 kts 163°
2026-05-04 18:17 45.91106 8.60298 15731 ft 313 kts 163°
2026-05-04 18:18 45.89140 8.61624 15380 ft 318 kts 148°
2026-05-04 18:18 45.87407 8.63604 15088 ft 318 kts 144°
2026-05-04 18:18 45.85703 8.65635 14750 ft 319 kts 144°
2026-05-04 18:18 45.84021 8.67625 14428 ft 319 kts 144°
2026-05-04 18:19 45.80580 8.71631 13727 ft 319 kts 144°
2026-05-04 18:19 45.78853 8.73620 13362 ft 318 kts 144°
2026-05-04 18:19 45.77134 8.75596 13006 ft 313 kts 144°
2026-05-04 18:20 45.75403 8.77380 12663 ft 302 kts 153°
2026-05-04 18:20 45.73590 8.78790 12370 ft 291 kts 155°
2026-05-04 18:20 45.71793 8.80098 12074 ft 290 kts 156°
2026-05-04 18:20 45.70007 8.81406 11760 ft 290 kts 155°
2026-05-04 18:21 45.68208 8.82752 11468 ft 290 kts 154°
2026-05-04 18:21 45.66429 8.84105 11173 ft 289 kts 154°
2026-05-04 18:21 45.64672 8.85451 11022 ft 283 kts 154°
2026-05-04 18:21 45.62953 8.86769 10890 ft 277 kts 154°
2026-05-04 18:22 45.61243 8.87916 10681 ft 272 kts 165°
2026-05-04 18:22 45.59390 8.88449 10431 ft 270 kts 171°
2026-05-04 18:22 45.57532 8.88895 10154 ft 271 kts 171°
2026-05-04 18:22 45.55677 8.89367 9935 ft 268 kts 170°
2026-05-04 18:23 45.53868 8.89846 9619 ft 268 kts 170°
2026-05-04 18:23 45.52041 8.90338 9282 ft 269 kts 169°
2026-05-04 18:23 45.50237 8.90827 8906 ft 265 kts 169°
2026-05-04 18:23 45.48429 8.91318 8437 ft 263 kts 169°
2026-05-04 18:24 45.46641 8.91804 7980 ft 260 kts 169°
2026-05-04 18:24 45.44904 8.92276 7806 ft 247 kts 169°
2026-05-04 18:24 45.43251 8.92726 7443 ft 244 kts 169°
2026-05-04 18:24 45.41575 8.93180 7108 ft 245 kts 169°
2026-05-04 18:25 45.39954 8.93620 7081 ft 230 kts 169°
2026-05-04 18:25 45.38431 8.94032 6992 ft 215 kts 168°
2026-05-04 18:25 45.37005 8.94419 6876 ft 202 kts 169°
2026-05-04 18:25 45.35669 8.94781 6691 ft 192 kts 169°
2026-05-04 18:26 45.34365 8.95134 6341 ft 191 kts 169°
2026-05-04 18:26 45.33082 8.95481 5977 ft 190 kts 169°
2026-05-04 18:26 45.31769 8.95620 5580 ft 190 kts 194°
2026-05-04 18:26 45.30686 8.94616 5195 ft 191 kts 234°
2026-05-04 18:27 45.30209 8.92862 4822 ft 191 kts 259°
2026-05-04 18:27 45.29969 8.91028 4531 ft 187 kts 257°
2026-05-04 18:27 45.29721 8.89211 4172 ft 188 kts 257°
2026-05-04 18:27 45.29472 8.87395 4035 ft 189 kts 257°
2026-05-04 18:28 45.29222 8.85559 4000 ft 189 kts 257°
2026-05-04 18:28 45.29136 8.83720 3970 ft 189 kts 283°
2026-05-04 18:28 45.29874 8.82196 3999 ft 196 kts 324°
2026-05-04 18:28 45.31164 8.81565 4017 ft 199 kts 348°
2026-05-04 18:29 45.32525 8.81199 3998 ft 198 kts 347°
2026-05-04 18:29 45.33876 8.80832 3984 ft 198 kts 348°
2026-05-04 18:29 45.35197 8.80473 3983 ft 196 kts 348°
2026-05-04 18:29 45.36530 8.80112 3982 ft 194 kts 347°
2026-05-04 18:30 45.39162 8.79546 3993 ft 194 kts 351°
2026-05-04 18:30 45.40504 8.79289 3994 ft 195 kts 351°
2026-05-04 18:30 45.41853 8.79027 3998 ft 196 kts 351°
2026-05-04 18:31 45.43211 8.78763 4007 ft 197 kts 351°
2026-05-04 18:31 45.44566 8.78445 4007 ft 197 kts 348°
2026-05-04 18:31 45.45922 8.78074 3802 ft 199 kts 348°
2026-05-04 18:31 45.47260 8.77702 3549 ft 194 kts 348°
2026-05-04 18:32 45.48567 8.77341 3296 ft 189 kts 348°
2026-05-04 18:32 45.49845 8.76988 3050 ft 186 kts 348°
2026-05-04 18:32 45.51103 8.76641 2798 ft 183 kts 348°
2026-05-04 18:32 45.52323 8.76305 2552 ft 172 kts 348°
2026-05-04 18:33 45.53461 8.75991 2329 ft 160 kts 348°
2026-05-04 18:33 45.54521 8.75698 2191 ft 155 kts 348°
2026-05-04 18:33 45.55594 8.75402 1935 ft 155 kts 349°
2026-05-04 18:33 45.56639 8.75114 1722 ft 150 kts 348°
2026-05-04 18:34 45.57665 8.74830 1524 ft 152 kts 348°
2026-05-04 18:34 45.58695 8.74546 1346 ft 151 kts 348°
2026-05-04 18:34 45.59730 8.74259 1134 ft 152 kts 348°
2026-05-04 18:34 45.60774 8.73969 943 ft 153 kts 349°
2026-05-04 18:35 45.61806 8.73678 765 ft 151 kts 349°
2026-05-04 18:35 45.62727 8.73425 746 ft 111 kts 350°
2026-05-04 18:35 45.63232 8.73147 747 ft 49 kts 305°
2026-05-04 18:35 45.63319 8.72950 748 ft 15 kts 303°
2026-05-04 18:36 45.63373 8.72833 749 ft 10 kts 303°
2026-05-04 18:36 45.63401 8.72752 747 ft 9 kts 287°
2026-05-04 18:36 45.63407 8.72660 751 ft 10 kts 265°
2026-05-04 18:36 45.63394 8.72546 749 ft 13 kts 259°
2026-05-04 18:37 45.63374 8.72397 746 ft 17 kts 259°
2026-05-04 18:37 45.63348 8.72201 745 ft 22 kts 259°
2026-05-04 18:37 45.63319 8.71985 749 ft 22 kts 259°
2026-05-04 18:37 45.63291 8.71779 750 ft 16 kts 258°
2026-05-04 18:38 45.63250 8.71670 751 ft 11 kts 195°
2026-05-04 18:38 45.63185 8.71682 751 ft 8 kts 169°
2026-05-04 18:38 45.63137 8.71695 751 ft 6 kts 169°
2026-05-04 18:38 45.63094 8.71707 751 ft 7 kts 169°
2026-05-04 18:39 45.63037 8.71723 750 ft 9 kts 169°
2026-05-04 18:39 45.62961 8.71744 751 ft 13 kts 170°
2026-05-04 18:39 45.62879 8.71782 749 ft 10 kts 120°
2026-05-04 18:39 45.62878 8.71840 749 ft 1 kts 77°
2026-05-04 18:40 45.62879 8.71841 749 ft 1 kts 77°
2026-05-04 18:40 45.62883 8.71869 750 ft 1 kts 80°
2026-05-04 18:40 45.62883 8.71872 751 ft 0 kts 80°